Regional Weather Roundup
Issued by NWS Little Rock, AR

Home | Current Version | Previous Version | Text Only | Print | Product List | Glossary Off
Versions: 1 2 3 4 5 6 7 8 9 10 11 12 13 14 15 16 17 18 19 20 21 22 23 24 25 26 27 28 29 30 31 32 33 34 35 36 37 38 39 40 41 42 43 44 45 46 47 48

000
ASUS44 KLZK 310305
RWRLZK

WEATHER ROUNDUP FOR ARKANSAS
NATIONAL WEATHER SERVICE LITTLE ROCK AR
1000 PM CDT SUN AUG 30 2015

NOTE: "FAIR" INDICATES FEW OR NO CLOUDS BELOW 12,000 FEET WITH NO
SIGNIFICANT WEATHER AND/OR OBSTRUCTIONS TO VISIBILITY.

ARZ001-003-010-029-310400-
NORTHWEST ARKANSAS

CITY           SKY/WX    TMP DP  RH WIND       PRES   REMARKS
FAYETTEVILLE   CLEAR     71  71 100 CALM      30.00S FOG
FORT SMITH     PTCLDY    77  66  68 CALM      29.96S
BENTONVILLE    CLEAR     75  68  78 SE7       30.01S
ROGERS         CLEAR     75  72  90 SE7       30.02R
SILOAM SPGS    CLEAR     75  66  73 SE8       29.98S
HIGHFILL       CLEAR     77  72  84 SE5       30.00R
$$

ARZ004-005-016-310400-
NORTH CENTRAL ARKANSAS

CITY           SKY/WX    TMP DP  RH WIND       PRES   REMARKS
BATESVILLE     CLEAR     75  70  83 CALM      30.01S
FLIPPIN        PTCLDY    75  66  73 CALM      29.99S
MTN HOME       PTCLDY    76  68  76 SE5       30.01S
$$

ARZ040-041-310400-
WEST CENTRAL ARKANSAS

CITY           SKY/WX    TMP DP  RH WIND       PRES   REMARKS
MENA           MOCLDY    75  68  78 CALM      30.02R
MOUNT IDA      PTCLDY    77  68  73 CALM      29.98R
$$

ARZ009-017-025-026-028-310400-
NORTHEAST ARKANSAS

CITY           SKY/WX    TMP DP  RH WIND       PRES   REMARKS
JONESBORO      CLEAR     75  69  81 SE7       30.02R
NEWPORT        CLEAR     75  72  91 E5        30.01S
WALNUT RIDGE   CLEAR     75  68  78 SE8       30.01S
BLYTHEVILLE    CLEAR     74  72  93 S5        30.04R
$$

ARZ022-023-033-042-044-310400-
CENTRAL ARKANSAS

CITY           SKY/WX    TMP DP  RH WIND       PRES   REMARKS
LITTLE ROCK    CLEAR     81  67  62 SE8       29.99S
N LITTLE ROCK  CLEAR     80  70  70 SE6       29.99S
JACKSONVILLE   CLEAR     79  68  68 E3        29.99S
SEARCY         CLEAR     73  69  87 CALM      30.01S
HOT SPRINGS    PTCLDY    77  67  71 E3        30.00R
RUSSELLVILLE   CLEAR     77  70  79 CALM      29.98R
$$

ARZ036-310400-
EAST ARKANSAS

CITY           SKY/WX    TMP DP  RH WIND       PRES   REMARKS
WEST MEMPHIS   CLEAR     74  71  91 SE8       30.02R
$$

ARZ050-053-066-070-073-310400-
SOUTHWEST ARKANSAS

CITY           SKY/WX    TMP DP  RH WIND       PRES   REMARKS
ARKADELPHIA    FAIR      73  71  93 CALM      29.99R
CAMDEN         CLEAR     75  68  78 CALM      29.98R
TEXARKANA      CLEAR     79  67  66 S6        29.98R
EL DORADO      CLEAR     78  68  71 CALM      29.99R
DE QUEEN       CLOUDY    78  69  73 CALM      29.96R
$$

ARZ056-057-069-310400-
SOUTHEAST ARKANSAS

CITY           SKY/WX    TMP DP  RH WIND       PRES   REMARKS
PINE BLUFF     CLEAR     75  69  81 E6        29.99S
STUTTGART      CLEAR     79  64  61 E7        30.00S
MONTICELLO     CLEAR     77  70  79 NE5       30.00R

$$




USA.gov is the U.S. government's official web portal to all federal, state and local government web resources and services.